Location: Unspecified
(0.0000°N, 0.0000°E)
Time: 04:49:27
(UTC+00:00)

Transit 4A - Pass Details

Date: 06 October 2020
Orbit: 862 x 982 km, 66.8° (Epoch: 28 October)

Event Time Altitude Azimuth Distance (km) Brightness Sun altitude
Rises 07:31:47 0° 318° (NW) 3,635 10.6 25.8°
Reaches altitude 10° 07:34:45 10° 306° (NW) 2,675 9.9 26.6°
Maximum altitude 07:39:51 27° 251° (WSW) 1,729 9.1 27.8°
Drops below altitude 10° 07:44:53 10° 195° (SSW) 2,615 10.3 29.1°
Sets 07:47:46 0° 183° (S) 3,538 11.0 29.8°
